| time (UTC) | temp F | wind direction | speed MPH | gust MPH | rain 1hr in | rain 24hr in | rain mn in | humidity % | barometer mb |
| 20260906234404 | 69 | 229 | 0.0 | 0.0 | 0.00 | 0.42 | 0.14 | 92 | 1019.6 |
| 20260906233905 | 69 | 227 | 0.0 | 0.0 | 0.00 | 0.42 | 0.14 | 92 | 1019.7 |
| 20260906233405 | 69 | 226 | 0.0 | 0.0 | 0.00 | 0.42 | 0.14 | 92 | 1019.6 |
| 20260906232904 | 69 | 241 | 0.0 | 0.0 | 0.00 | 0.42 | 0.14 | 92 | 1019.7 |
| 20260906231405 | 69 | 244 | 0.0 | 0.0 | 0.00 | 0.42 | 0.14 | 92 | 1019.6 |
| 20260906230904 | 69 | 244 | 0.0 | 0.0 | 0.00 | 0.42 | 0.14 | 92 | 1019.5 |
| 20260906230405 | 69 | 244 | 0.0 | 0.0 | 0.00 | 0.42 | 0.14 | 92 | 1019.5 |
| 20260906225405 | 69 | 242 | 0.0 | 0.0 | 0.00 | 0.42 | 0.14 | 92 | 1019.6 |
| 20260906224905 | 69 | 239 | 0.0 | 0.0 | 0.00 | 0.42 | 0.14 | 92 | 1019.6 |
| 20260906224405 | 69 | 243 | 0.0 | 0.0 | 0.00 | 0.42 | 0.14 | 92 | 1019.6 |
| 20260906223905 | 69 | 249 | 0.0 | 0.0 | 0.00 | 0.42 | 0.14 | 92 | 1019.5 |
| 20260906223405 | 69 | 239 | 0.0 | 0.0 | 0.00 | 0.42 | 0.14 | 92 | 1019.6 |
| 20260906222905 | 69 | 246 | 0.0 | 0.0 | 0.00 | 0.42 | 0.14 | 92 | 1019.5 |
| 20260906222405 | 69 | 239 | 0.0 | 0.0 | 0.00 | 0.42 | 0.14 | 92 | 1019.5 |
| 20260906221905 | 69 | 230 | 0.0 | 0.0 | 0.00 | 0.42 | 0.14 | 92 | 1019.6 |
| 20260906221405 | 69 | 220 | 0.0 | 0.0 | 0.00 | 0.42 | 0.14 | 92 | 1019.7 |
| 20260906220905 | 69 | 236 | 0.0 | 0.0 | 0.00 | 0.42 | 0.14 | 92 | 1019.8 |
| 20260906220405 | 69 | 221 | 0.0 | 0.0 | 0.00 | 0.42 | 0.14 | 92 | 1019.9 |
| 20260906215905 | 69 | 240 | 0.0 | 0.0 | 0.01 | 0.42 | 0.14 | 92 | 1019.9 |
| 20260906215404 | 69 | 238 | 0.0 | 0.0 | 0.01 | 0.42 | 0.14 | 92 | 1020.0 |
| 20260906214905 | 70 | 228 | 0.0 | 0.0 | 0.01 | 0.42 | 0.14 | 92 | 1020.0 |
| 20260906214404 | 70 | 234 | 0.0 | 0.0 | 0.01 | 0.42 | 0.14 | 92 | 1020.0 |
| 20260906213905 | 69 | 233 | 0.0 | 0.0 | 0.01 | 0.42 | 0.14 | 92 | 1020.0 |
| 20260906212905 | 69 | 228 | 0.0 | 0.0 | 0.02 | 0.42 | 0.14 | 92 | 1020.3 |
| 20260906212405 | 70 | 245 | 0.0 | 0.0 | 0.04 | 0.42 | 0.14 | 92 | 1020.3 |
| 20260906211904 | 70 | 242 | 0.0 | 0.0 | 0.06 | 0.42 | 0.14 | 91 | 1020.4 |
| 20260906211405 | 70 | 246 | 0.0 | 0.0 | 0.12 | 0.42 | 0.14 | 92 | 1020.5 |
| 20260906210905 | 70 | 276 | 0.0 | 0.0 | 0.14 | 0.42 | 0.14 | 92 | 1020.5 |
| 20260906210405 | 70 | 276 | 0.0 | 0.0 | 0.14 | 0.42 | 0.14 | 92 | 1020.6 |
| 20260906204905 | 70 | 273 | 0.0 | 0.0 | 0.14 | 0.41 | 0.13 | 92 | 1020.8 |
| 20260906204405 | 70 | 273 | 0.0 | 0.0 | 0.15 | 0.41 | 0.13 | 91 | 1020.8 |
| 20260906203905 | 70 | 273 | 0.0 | 0.0 | 0.17 | 0.41 | 0.13 | 91 | 1020.8 |
| 20260906203405 | 70 | 272 | 0.0 | 0.0 | 0.18 | 0.40 | 0.13 | 91 | 1020.8 |
| 20260906202905 | 70 | 272 | 0.0 | 0.0 | 0.19 | 0.39 | 0.12 | 91 | 1020.8 |
| 20260906202404 | 70 | 272 | 0.0 | 0.0 | 0.20 | 0.38 | 0.10 | 91 | 1020.8 |
| 20260906201905 | 70 | 271 | 0.0 | 0.0 | 0.18 | 0.35 | 0.08 | 91 | 1020.9 |
| 20260906201405 | 70 | 271 | 0.0 | 0.0 | 0.14 | 0.30 | 0.02 | 91 | 1021.0 |
| 20260906200405 | 70 | 271 | 0.0 | 0.0 | 0.13 | 0.28 | 0.00 | 91 | 1021.0 |
| 20260906195904 | 70 | 271 | 0.0 | 0.0 | 0.14 | 0.28 | 0.28 | 91 | 1021.0 |
| 20260906194405 | 70 | 224 | 0.0 | 0.0 | 0.13 | 0.26 | 0.26 | 91 | 1021.0 |
| 20260906193405 | 70 | 221 | 0.0 | 0.0 | 0.11 | 0.23 | 0.23 | 90 | 1021.0 |
| 20260906192905 | 70 | 221 | 0.0 | 0.0 | 0.09 | 0.20 | 0.20 | 90 | 1021.0 |
| 20260906192405 | 70 | 221 | 0.0 | 0.0 | 0.08 | 0.19 | 0.19 | 91 | 1021.0 |
| 20260906191404 | 71 | 221 | 0.0 | 0.0 | 0.06 | 0.16 | 0.16 | 90 | 1021.0 |
| 20260906190905 | 71 | 221 | 0.0 | 0.0 | 0.07 | 0.16 | 0.16 | 90 | 1020.9 |
| 20260906190405 | 71 | 221 | 0.0 | 0.0 | 0.06 | 0.15 | 0.15 | 90 | 1020.9 |
| 20260906185905 | 71 | 220 | 0.0 | 2.0 | 0.06 | 0.13 | 0.13 | 90 | 1020.9 |
| 20260906185405 | 71 | 98 | 0.0 | 0.0 | 0.06 | 0.13 | 0.13 | 90 | 1021.0 |
| 20260906184905 | 71 | 98 | 0.0 | 0.0 | 0.06 | 0.13 | 0.13 | 90 | 1021.0 |
| 20260906184405 | 71 | 98 | 0.0 | 0.0 | 0.06 | 0.13 | 0.13 | 90 | 1021.0 |
| 20260906183904 | 71 | 98 | 0.0 | 1.0 | 0.06 | 0.12 | 0.12 | 90 | 1021.0 |
| 20260906183405 | 71 | 98 | 0.0 | 0.0 | 0.07 | 0.12 | 0.12 | 90 | 1021.0 |
| 20260906182904 | 71 | 97 | 0.0 | 0.0 | 0.07 | 0.12 | 0.12 | 90 | 1021.0 |
| 20260906182405 | 71 | 96 | 0.0 | 0.0 | 0.07 | 0.11 | 0.11 | 90 | 1021.1 |
| 20260906181905 | 71 | 96 | 0.0 | 0.0 | 0.06 | 0.10 | 0.10 | 89 | 1021.0 |
| 20260906181405 | 71 | 96 | 0.0 | 0.0 | 0.06 | 0.09 | 0.09 | 89 | 1021.0 |
| 20260906180905 | 71 | 96 | 0.0 | 0.0 | 0.06 | 0.09 | 0.09 | 89 | 1021.0 |
| 20260906180404 | 71 | 96 | 0.0 | 0.0 | 0.06 | 0.09 | 0.09 | 89 | 1021.1 |
| 20260906175905 | 71 | 96 | 0.0 | 0.0 | 0.06 | 0.08 | 0.08 | 89 | 1021.1 |
| 20260906175405 | 71 | 96 | 0.0 | 0.0 | 0.06 | 0.07 | 0.07 | 89 | 1021.1 |
| 20260906174905 | 71 | 96 | 0.0 | 0.0 | 0.06 | 0.06 | 0.06 | 89 | 1021.2 |
| 20260906174405 | 71 | 96 | 0.0 | 0.0 | 0.06 | 0.06 | 0.06 | 88 | 1021.1 |
| 20260906173904 | 71 | 96 | 0.0 | 0.0 | 0.05 | 0.06 | 0.06 | 88 | 1021.1 |
| 20260906173405 | 71 | 96 | 0.0 | 0.0 | 0.05 | 0.05 | 0.05 | 88 | 1021.1 |
| 20260906172905 | 72 | 96 | 0.0 | 0.0 | 0.05 | 0.05 | 0.05 | 88 | 1021.2 |
| 20260906172405 | 72 | 96 | 0.0 | 0.0 | 0.04 | 0.04 | 0.04 | 88 | 1021.1 |
| 20260906171905 | 72 | 96 | 0.0 | 0.0 | 0.04 | 0.04 | 0.04 | 88 | 1021.0 |
| 20260906170404 | 72 | 96 | 0.0 | 0.0 | 0.02 | 0.02 | 0.02 | 87 | 1021.1 |
| 20260906165904 | 72 | 96 | 0.0 | 0.0 | 0.02 | 0.02 | 0.02 | 86 | 1021.1 |
| 20260906165405 | 72 | 96 | 0.0 | 0.0 | 0.02 | 0.02 | 0.02 | 86 | 1021.0 |
| 20260906164905 | 73 | 96 | 0.0 | 0.0 | 0.01 | 0.01 | 0.01 | 86 | 1020.9 |
| 20260906164405 | 73 | 96 | 0.0 | 0.0 | 0.01 | 0.01 | 0.01 | 85 | 1021.0 |
| 20260906163905 | 73 | 96 | 0.0 | 0.0 | 0.01 | 0.01 | 0.01 | 85 | 1021.0 |
| 20260906162905 | 73 | 96 | 0.0 | 0.0 | 0.00 | 0.00 | 0.00 | 85 | 1021.0 |
| 20260906162404 | 73 | 96 | 0.0 | 0.0 | 0.00 | 0.00 | 0.00 | 85 | 1020.9 |
| 20260906161905 | 73 | 96 | 0.0 | 0.0 | 0.00 | 0.00 | 0.00 | 84 | 1020.8 |
| 20260906160905 | 73 | 96 | 0.0 | 0.0 | 0.00 | 0.00 | 0.00 | 84 | 1020.7 |
| 20260906160404 | 74 | 96 | 0.0 | 1.0 | 0.00 | 0.00 | 0.00 | 84 | 1020.7 |
| 20260906155905 | 74 | 91 | 2.0 | 8.0 | 0.00 | 0.00 | 0.00 | 83 | 1020.7 |
| 20260906155405 | 74 | 140 | 3.0 | 9.0 | 0.00 | 0.00 | 0.00 | 83 | 1020.6 |
| 20260906154905 | 74 | 164 | 1.0 | 8.0 | 0.00 | 0.00 | 0.00 | 82 | 1020.5 |
| 20260906154404 | 74 | 108 | 1.0 | 3.0 | 0.00 | 0.00 | 0.00 | 82 | 1020.5 |
| 20260906153905 | 74 | 92 | 2.0 | 6.0 | 0.00 | 0.00 | 0.00 | 82 | 1020.4 |
| 20260906152406 | 74 | 127 | 4.0 | 7.0 | 0.00 | 0.00 | 0.00 | 81 | 1020.0 |
| 20260906151906 | 74 | 126 | 3.0 | 9.0 | 0.00 | 0.00 | 0.00 | 80 | 1020.0 |
| 20260906151404 | 74 | 151 | 2.0 | 8.0 | 0.00 | 0.00 | 0.00 | 80 | 1019.8 |
| 20260906150906 | 74 | 147 | 4.0 | 12.0 | 0.00 | 0.00 | 0.00 | 81 | 1019.8 |
| 20260906150405 | 75 | 132 | 1.0 | 12.0 | 0.00 | 0.00 | 0.00 | 81 | 1019.7 |
| 20260906145905 | 75 | 84 | 3.0 | 9.0 | 0.00 | 0.00 | 0.00 | 81 | 1019.6 |
| 20260906145405 | 75 | 153 | 2.0 | 3.0 | 0.00 | 0.00 | 0.00 | 81 | 1019.6 |
| 20260906144405 | 75 | 136 | 4.0 | 8.0 | 0.00 | 0.00 | 0.00 | 80 | 1019.5 |
| 20260906143904 | 75 | 128 | 3.0 | 9.0 | 0.00 | 0.00 | 0.00 | 80 | 1019.4 |
| 20260906143405 | 75 | 141 | 3.0 | 7.0 | 0.00 | 0.00 | 0.00 | 80 | 1019.4 |
| 20260906142904 | 75 | 169 | 2.0 | 9.0 | 0.00 | 0.00 | 0.00 | 80 | 1019.5 |
| 20260906142405 | 75 | 119 | 1.0 | 8.0 | 0.00 | 0.00 | 0.00 | 79 | 1019.4 |
| 20260906141905 | 75 | 136 | 3.0 | 9.0 | 0.00 | 0.00 | 0.00 | 79 | 1019.4 |
| 20260906141405 | 75 | 152 | 4.0 | 8.0 | 0.00 | 0.00 | 0.00 | 79 | 1019.3 |
| 20260906140905 | 75 | 133 | 3.0 | 7.0 | 0.00 | 0.00 | 0.00 | 79 | 1019.3 |
| 20260906140405 | 76 | 131 | 2.0 | 8.0 | 0.00 | 0.00 | 0.00 | 78 | 1019.4 |
| 20260906135905 | 76 | 163 | 3.0 | 8.0 | 0.00 | 0.00 | 0.00 | 78 | 1019.3 |
| 20260906135404 | 76 | 155 | 2.0 | 8.0 | 0.00 | 0.00 | 0.00 | 78 | 1019.2 |
| 20260906134904 | 76 | 146 | 4.0 | 9.0 | 0.00 | 0.00 | 0.00 | 78 | 1019.2 |
| 20260906134405 | 76 | 172 | 3.0 | 9.0 | 0.00 | 0.00 | 0.00 | 78 | 1019.1 |
| 20260906133905 | 76 | 144 | 3.0 | 9.0 | 0.00 | 0.00 | 0.00 | 78 | 1019.1 |
| 20260906133405 | 76 | 116 | 6.0 | 12.0 | 0.00 | 0.00 | 0.00 | 77 | 1019.1 |
| 20260906132905 | 76 | 130 | 3.0 | 9.0 | 0.00 | 0.00 | 0.00 | 77 | 1019.1 |
| 20260906132405 | 76 | 139 | 6.0 | 12.0 | 0.00 | 0.00 | 0.00 | 77 | 1019.0 |
| 20260906131904 | 77 | 124 | 5.0 | 12.0 | 0.00 | 0.00 | 0.00 | 76 | 1018.9 |
| 20260906131405 | 77 | 148 | 2.0 | 10.0 | 0.00 | 0.00 | 0.00 | 77 | 1018.9 |
| 20260906130905 | 77 | 137 | 6.0 | 12.0 | 0.00 | 0.00 | 0.00 | 77 | 1018.9 |
| 20260906125405 | 77 | 126 | 5.0 | 10.0 | 0.00 | 0.00 | 0.00 | 76 | 1018.8 |
| 20260906124905 | 77 | 128 | 5.0 | 10.0 | 0.00 | 0.00 | 0.00 | 75 | 1018.7 |
| 20260906123405 | 77 | 128 | 6.0 | 14.0 | 0.00 | 0.00 | 0.00 | 75 | 1018.6 |
| 20260906122905 | 78 | 158 | 6.0 | 17.0 | 0.00 | 0.00 | 0.00 | 75 | 1018.6 |
| 20260906122405 | 78 | 100 | 6.0 | 12.0 | 0.00 | 0.00 | 0.00 | 75 | 1018.6 |
| 20260906121905 | 77 | 109 | 9.0 | 14.0 | 0.00 | 0.00 | 0.00 | 75 | 1018.6 |
| 20260906121404 | 77 | 159 | 3.0 | 10.0 | 0.00 | 0.00 | 0.00 | 76 | 1018.6 |
| 20260906120904 | 77 | 101 | 6.0 | 12.0 | 0.00 | 0.00 | 0.00 | 76 | 1018.7 |
| 20260906115904 | 78 | 138 | 7.0 | 15.0 | 0.00 | 0.00 | 0.00 | 75 | 1018.7 |
| 20260906115405 | 78 | 136 | 6.0 | 13.0 | 0.00 | 0.00 | 0.00 | 74 | 1018.8 |
| 20260906114905 | 78 | 123 | 3.0 | 9.0 | 0.00 | 0.00 | 0.00 | 74 | 1018.7 |
| 20260906114404 | 78 | 146 | 6.0 | 14.0 | 0.00 | 0.00 | 0.00 | 75 | 1018.8 |
| 20260906112904 | 78 | 96 | 6.0 | 12.0 | 0.00 | 0.00 | 0.00 | 74 | 1018.8 |
| 20260906112405 | 78 | 99 | 6.0 | 12.0 | 0.00 | 0.00 | 0.00 | 73 | 1018.8 |
| 20260906111905 | 79 | 89 | 6.0 | 12.0 | 0.00 | 0.00 | 0.00 | 74 | 1018.9 |
| 20260906111405 | 79 | 83 | 7.0 | 13.0 | 0.00 | 0.00 | 0.00 | 74 | 1018.8 |
| 20260906110905 | 79 | 80 | 9.0 | 13.0 | 0.00 | 0.00 | 0.00 | 73 | 1018.9 |
| 20260906110405 | 79 | 105 | 4.0 | 14.0 | 0.00 | 0.00 | 0.00 | 74 | 1018.9 |
| 20260906105404 | 79 | 112 | 6.0 | 12.0 | 0.00 | 0.00 | 0.00 | 72 | 1019.0 |
| 20260906104905 | 79 | 103 | 6.0 | 15.0 | 0.00 | 0.00 | 0.00 | 73 | 1019.0 |
| 20260906104405 | 79 | 109 | 6.0 | 16.0 | 0.00 | 0.00 | 0.00 | 74 | 1019.0 |
| 20260906103905 | 79 | 97 | 8.0 | 15.0 | 0.00 | 0.00 | 0.00 | 72 | 1019.1 |
| 20260906102904 | 80 | 95 | 6.0 | 12.0 | 0.00 | 0.00 | 0.00 | 72 | 1019.1 |
| 20260906101905 | 79 | 125 | 6.0 | 12.0 | 0.00 | 0.00 | 0.00 | 73 | 1019.2 |
| 20260906101405 | 79 | 105 | 6.0 | 12.0 | 0.00 | 0.00 | 0.00 | 72 | 1019.4 |
| 20260906100905 | 80 | 120 | 7.0 | 14.0 | 0.00 | 0.00 | 0.00 | 72 | 1019.5 |
| 20260906100404 | 79 | 90 | 5.0 | 12.0 | 0.00 | 0.00 | 0.00 | 72 | 1019.6 |
| 20260906095905 | 79 | 149 | 8.0 | 14.0 | 0.00 | 0.00 | 0.00 | 72 | 1019.7 |
| 20260906095404 | 79 | 84 | 7.0 | 14.0 | 0.00 | 0.00 | 0.00 | 72 | 1019.7 |
| 20260906094905 | 79 | 132 | 9.0 | 16.0 | 0.00 | 0.00 | 0.00 | 71 | 1019.8 |
| 20260906094404 | 79 | 102 | 6.0 | 13.0 | 0.00 | 0.00 | 0.00 | 71 | 1019.9 |
| 20260906093904 | 78 | 85 | 8.0 | 14.0 | 0.00 | 0.00 | 0.00 | 71 | 1019.9 |
| 20260906093405 | 79 | 144 | 7.0 | 15.0 | 0.00 | 0.00 | 0.00 | 72 | 1019.9 |
| 20260906092904 | 79 | 88 | 6.0 | 17.0 | 0.00 | 0.00 | 0.00 | 72 | 1019.9 |
| 20260906092405 | 79 | 90 | 8.0 | 17.0 | 0.00 | 0.00 | 0.00 | 73 | 1020.0 |
| 20260906090905 | 79 | 63 | 7.0 | 13.0 | 0.00 | 0.00 | 0.00 | 73 | 1020.1 |
| 20260906090404 | 79 | 128 | 8.0 | 15.0 | 0.00 | 0.00 | 0.00 | 73 | 1020.2 |
| 20260906085905 | 79 | 79 | 6.0 | 15.0 | 0.00 | 0.00 | 0.00 | 72 | 1020.2 |
| 20260906085405 | 78 | 89 | 8.0 | 13.0 | 0.00 | 0.00 | 0.00 | 72 | 1020.2 |
| 20260906084905 | 78 | 118 | 7.0 | 17.0 | 0.00 | 0.00 | 0.00 | 73 | 1020.2 |
| 20260906084405 | 78 | 133 | 8.0 | 18.0 | 0.00 | 0.00 | 0.00 | 74 | 1020.3 |
| 20260906083905 | 78 | 126 | 9.0 | 17.0 | 0.00 | 0.00 | 0.00 | 73 | 1020.3 |
| 20260906083405 | 78 | 76 | 10.0 | 14.0 | 0.00 | 0.00 | 0.00 | 72 | 1020.5 |
| 20260906082905 | 78 | 95 | 10.0 | 18.0 | 0.00 | 0.00 | 0.00 | 71 | 1020.6 |
| 20260906082404 | 78 | 92 | 9.0 | 15.0 | 0.00 | 0.00 | 0.00 | 72 | 1020.7 |
| 20260906081904 | 79 | 73 | 4.0 | 12.0 | 0.00 | 0.00 | 0.00 | 72 | 1020.7 |
| 20260906081405 | 78 | 109 | 7.0 | 14.0 | 0.00 | 0.00 | 0.00 | 72 | 1020.7 |
| 20260906080904 | 78 | 132 | 8.0 | 16.0 | 0.00 | 0.00 | 0.00 | 73 | 1020.7 |
| 20260906080405 | 78 | 61 | 9.0 | 15.0 | 0.00 | 0.00 | 0.00 | 73 | 1020.8 |
| 20260906075404 | 78 | 96 | 10.0 | 17.0 | 0.00 | 0.00 | 0.00 | 73 | 1020.9 |
| 20260906074905 | 78 | 112 | 9.0 | 15.0 | 0.00 | 0.00 | 0.00 | 73 | 1021.0 |
| 20260906074404 | 78 | 87 | 6.0 | 14.0 | 0.00 | 0.00 | 0.00 | 73 | 1021.0 |
| 20260906073905 | 78 | 83 | 7.0 | 14.0 | 0.00 | 0.00 | 0.00 | 72 | 1021.1 |
| 20260906073404 | 78 | 114 | 9.0 | 14.0 | 0.00 | 0.00 | 0.00 | 72 | 1021.2 |
| 20260906072904 | 78 | 95 | 7.0 | 14.0 | 0.00 | 0.00 | 0.00 | 73 | 1021.3 |
| 20260906071905 | 78 | 97 | 7.0 | 13.0 | 0.00 | 0.00 | 0.00 | 74 | 1021.2 |
| 20260906071405 | 78 | 87 | 7.0 | 15.0 | 0.00 | 0.00 | 0.00 | 75 | 1021.2 |
| 20260906070905 | 78 | 117 | 9.0 | 15.0 | 0.00 | 0.00 | 0.00 | 74 | 1021.3 |
| 20260906070405 | 78 | 128 | 7.0 | 15.0 | 0.00 | 0.00 | 0.00 | 73 | 1021.3 |
| 20260906065905 | 78 | 128 | 7.0 | 17.0 | 0.00 | 0.00 | 0.00 | 74 | 1021.3 |
| 20260906065405 | 78 | 105 | 9.0 | 16.0 | 0.00 | 0.00 | 0.00 | 72 | 1021.5 |
| 20260906064404 | 78 | 85 | 6.0 | 15.0 | 0.00 | 0.00 | 0.00 | 73 | 1021.7 |
| 20260906062404 | 78 | 76 | 7.0 | 15.0 | 0.00 | 0.00 | 0.00 | 73 | 1021.8 |
| 20260906061904 | 78 | 64 | 9.0 | 14.0 | 0.00 | 0.00 | 0.00 | 72 | 1022.0 |
| 20260906061405 | 78 | 98 | 7.0 | 14.0 | 0.00 | 0.00 | 0.00 | 73 | 1022.0 |
| 20260906060904 | 77 | 101 | 10.0 | 17.0 | 0.00 | 0.00 | 0.00 | 73 | 1022.0 |
| 20260906060405 | 77 | 111 | 6.0 | 16.0 | 0.00 | 0.00 | 0.00 | 74 | 1022.0 |
| 20260906055405 | 77 | 84 | 9.0 | 16.0 | 0.00 | 0.00 | 0.00 | 74 | 1022.2 |
| 20260906054905 | 77 | 154 | 7.0 | 16.0 | 0.00 | 0.00 | 0.00 | 76 | 1022.1 |
| 20260906054404 | 77 | 121 | 5.0 | 12.0 | 0.00 | 0.00 | 0.00 | 76 | 1022.0 |
| 20260906053904 | 76 | 104 | 8.0 | 16.0 | 0.00 | 0.00 | 0.00 | 76 | 1022.0 |
| 20260906053405 | 76 | 144 | 7.0 | 13.0 | 0.00 | 0.00 | 0.00 | 77 | 1022.0 |
| 20260906052904 | 76 | 126 | 8.0 | 17.0 | 0.00 | 0.00 | 0.00 | 77 | 1022.1 |
| 20260906052405 | 75 | 107 | 7.0 | 14.0 | 0.00 | 0.00 | 0.00 | 78 | 1022.0 |
| 20260906051905 | 75 | 136 | 4.0 | 12.0 | 0.00 | 0.00 | 0.00 | 79 | 1021.9 |
| 20260906051404 | 74 | 120 | 7.0 | 14.0 | 0.00 | 0.00 | 0.00 | 79 | 1022.0 |
| 20260906050905 | 75 | 111 | 8.0 | 14.0 | 0.00 | 0.00 | 0.00 | 78 | 1022.0 |
| 20260906050405 | 75 | 106 | 5.0 | 10.0 | 0.00 | 0.00 | 0.00 | 78 | 1022.0 |
| 20260906045904 | 75 | 88 | 8.0 | 16.0 | 0.00 | 0.00 | 0.00 | 77 | 1022.0 |
| 20260906044904 | 76 | 113 | 5.0 | 12.0 | 0.00 | 0.00 | 0.00 | 78 | 1021.8 |
| 20260906043904 | 75 | 110 | 0.0 | 7.0 | 0.00 | 0.00 | 0.00 | 79 | 1022.0 |
| 20260906043405 | 75 | 140 | 2.0 | 8.0 | 0.00 | 0.00 | 0.00 | 78 | 1021.9 |
| 20260906042405 | 75 | 157 | 0.0 | 1.0 | 0.00 | 0.00 | 0.00 | 78 | 1021.7 |
| 20260906041404 | 74 | 164 | 3.0 | 8.0 | 0.00 | 0.00 | 0.00 | 79 | 1021.7 |
| 20260906040904 | 74 | 139 | 0.0 | 6.0 | 0.00 | 0.00 | 0.00 | 79 | 1021.7 |
| 20260906040404 | 74 | 153 | 1.0 | 10.0 | 0.00 | 0.00 | 0.00 | 79 | 1021.7 |
| 20260906035905 | 74 | 155 | 4.0 | 9.0 | 0.00 | 0.00 | 0.00 | 80 | 1021.6 |
| 20260906034904 | 73 | 168 | 0.0 | 1.0 | 0.00 | 0.00 | 0.00 | 81 | 1021.5 |
| 20260906033904 | 72 | 162 | 2.0 | 8.0 | 0.00 | 0.00 | 0.00 | 83 | 1021.6 |
| 20260906033405 | 71 | 200 | 2.0 | 8.0 | 0.00 | 0.00 | 0.00 | 83 | 1021.5 |
| 20260906032905 | 71 | 177 | 3.0 | 9.0 | 0.00 | 0.00 | 0.00 | 84 | 1021.5 |
| 20260906031904 | 70 | 178 | 2.0 | 10.0 | 0.00 | 0.00 | 0.00 | 84 | 1021.4 |
| 20260906031405 | 70 | 163 | 3.0 | 8.0 | 0.00 | 0.00 | 0.00 | 85 | 1021.3 |
| 20260906030905 | 70 | 169 | 3.0 | 8.0 | 0.00 | 0.00 | 0.00 | 85 | 1021.3 |
| 20260906030404 | 70 | 183 | 3.0 | 10.0 | 0.00 | 0.00 | 0.00 | 85 | 1021.3 |
| 20260906025904 | 69 | 183 | 3.0 | 10.0 | 0.00 | 0.00 | 0.00 | 85 | 1021.2 |
| 20260906025405 | 70 | 203 | 1.0 | 5.0 | 0.00 | 0.00 | 0.00 | 84 | 1021.3 |
| 20260906024905 | 70 | 155 | 2.0 | 10.0 | 0.00 | 0.00 | 0.00 | 84 | 1021.2 |
| 20260906023405 | 69 | 167 | 3.0 | 9.0 | 0.00 | 0.00 | 0.00 | 85 | 1021.2 |
| 20260906022905 | 69 | 165 | 4.0 | 8.0 | 0.00 | 0.00 | 0.00 | 85 | 1021.1 |
| 20260906021904 | 69 | 161 | 3.0 | 9.0 | 0.00 | 0.00 | 0.00 | 84 | 1021.1 |
| 20260906021405 | 69 | 184 | 5.0 | 12.0 | 0.00 | 0.00 | 0.00 | 84 | 1020.9 |
| 20260906020405 | 69 | 149 | 2.0 | 6.0 | 0.00 | 0.00 | 0.00 | 84 | 1020.8 |
| 20260906015905 | 69 | 180 | 1.0 | 8.0 | 0.00 | 0.00 | 0.00 | 84 | 1020.7 |
| 20260906015405 | 69 | 171 | 2.0 | 6.0 | 0.00 | 0.00 | 0.00 | 84 | 1020.6 |
| 20260906014905 | 69 | 170 | 2.0 | 8.0 | 0.00 | 0.00 | 0.00 | 84 | 1020.7 |
| 20260906014404 | 69 | 153 | 4.0 | 12.0 | 0.00 | 0.00 | 0.00 | 84 | 1020.8 |
| 20260906013904 | 69 | 153 | 3.0 | 9.0 | 0.00 | 0.00 | 0.00 | 85 | 1020.8 |
| 20260906013405 | 69 | 162 | 3.0 | 12.0 | 0.00 | 0.00 | 0.00 | 85 | 1020.7 |
| 20260906012904 | 69 | 166 | 3.0 | 10.0 | 0.00 | 0.00 | 0.00 | 85 | 1020.8 |
| 20260906012404 | 69 | 140 | 2.0 | 7.0 | 0.00 | 0.00 | 0.00 | 85 | 1020.8 |
| 20260906011905 | 69 | 144 | 2.0 | 7.0 | 0.00 | 0.00 | 0.00 | 85 | 1020.6 |
| 20260906011405 | 69 | 168 | 3.0 | 7.0 | 0.00 | 0.00 | 0.00 | 85 | 1020.7 |
| 20260906010905 | 69 | 180 | 2.0 | 7.0 | 0.00 | 0.00 | 0.00 | 84 | 1020.7 |
| 20260906010404 | 69 | 166 | 3.0 | 7.0 | 0.00 | 0.00 | 0.00 | 84 | 1020.6 |
| 20260906005905 | 69 | 170 | 5.0 | 9.0 | 0.00 | 0.00 | 0.00 | 84 | 1020.5 |
| 20260906005405 | 69 | 158 | 4.0 | 9.0 | 0.00 | 0.00 | 0.00 | 84 | 1020.4 |
| 20260906004905 | 69 | 162 | 2.0 | 7.0 | 0.00 | 0.00 | 0.00 | 85 | 1020.6 |
| 20260906004405 | 69 | 158 | 3.0 | 7.0 | 0.00 | 0.00 | 0.00 | 85 | 1020.5 |
| 20260906003905 | 69 | 148 | 4.0 | 8.0 | 0.00 | 0.00 | 0.00 | 85 | 1020.5 |
| 20260906003405 | 69 | 160 | 2.0 | 6.0 | 0.00 | 0.00 | 0.00 | 85 | 1020.5 |
| 20260906002905 | 69 | 159 | 3.0 | 7.0 | 0.00 | 0.00 | 0.00 | 85 | 1020.4 |
| 20260906002404 | 69 | 161 | 3.0 | 7.0 | 0.00 | 0.00 | 0.00 | 85 | 1020.4 |
| 20260906001904 | 69 | 180 | 3.0 | 7.0 | 0.00 | 0.00 | 0.00 | 84 | 1020.4 |
| 20260906001404 | 69 | 194 | 4.0 | 8.0 | 0.00 | 0.00 | 0.00 | 84 | 1020.4 |
| 20260906000904 | 69 | 176 | 2.0 | 6.0 | 0.00 | 0.00 | 0.00 | 84 | 1020.5 |
| 20260906000405 | 69 | 163 | 2.0 | 8.0 | 0.00 | 0.00 | 0.00 | 84 | 1020.5 |
| 20260905235904 | 69 | 161 | 3.0 | 9.0 | 0.00 | 0.00 | 0.00 | 85 | 1020.5 |
| 20260905235405 | 69 | 165 | 1.0 | 6.0 | 0.00 | 0.00 | 0.00 | 85 | 1020.5 |